Weather History for Pine Ridge, SD

Change the Weather History Date:

Tuesday, May 14, 2013

  Actual Average Record
Temperature  
Mean Temperature 69 °F 55 °F  
Max Temperature 83 °F 69 °F 86 °F (2012)
Min Temperature 54 °F 41 °F 25 °F (2004)
Degree Days  
Heating Degree Days 0 10  
Month to date heating degree days 202 175  
Since 1 July heating degree days 6981 6995  
Cooling Degree Days 4 0  
Month to date cooling degree days 12 0  
Year to date cooling degree days 12 0  
Growing Degree Days 20 (Base 50)    
Moisture  
Dew Point 44 °F    
Average Humidity 45    
Maximum Humidity 61    
Minimum Humidity 28    
Precipitation  
Precipitation T in 0.08 in 0.45 in (1999)
Month to date precipitation 0.24 1.23  
Year to date precipitation 2.71 4.80  
Sea Level Pressure  
Sea Level Pressure 29.76 in    
Wind  
Wind Speed 9 mph (ENE)    
Max Wind Speed 22 mph    
Max Gust Speed 26 mph    
Visibility 10 miles    
Events Thunderstorm    
T = Trace of Precipitation, MM = Missing Value Source: NWS Daily Summary

Daily Weather History Graph

Daily Weather History Graph

Search for Another Location

Airport:

Trip Planner

Search our weather history database for the weather conditions in past years. The results will help you decide how hot, cold, wet, or windy it might be!

Date:

Astronomy

May. 14, 2013 Rise Set
Actual Time 5:27 AM MDT 8:05 PM MDT
Civil Twilight 4:54 AM MDT 8:38 PM MDT
Nautical Twilight 4:14 AM MDT 9:19 PM MDT
Astronomical Twilight 3:27 AM MDT 10:06 PM MDT
Moon 9:09 AM MDT (5/14) 11:53 PM MDT (5/14)
Length of Visible Light 15h 43m
Length of Day
14h 38m
Waxing Crescent, 19% of the Moon is Illuminated
May 14
Waxing Crescent
May 17
First Quarter
May 24
Full
May 31
Last Quarter
Jun 8
New

Hourly Weather History & Observations

Time (MDT) Temp. Dew Point Humidity Pressure Visibility Wind Dir Wind Speed Gust Speed Precip Events Conditions
12:52 AM 66.0 °F 39.0 °F 37% 29.69 in 10.0 mi SSW 6.9 mph - N/A   Clear
1:52 AM 70.0 °F 39.0 °F 32% 29.65 in 10.0 mi South 13.8 mph - N/A   Clear
2:52 AM 69.1 °F 39.0 °F 33% 29.64 in 10.0 mi South 13.8 mph - N/A   Clear
3:52 AM 66.9 °F 39.0 °F 36% 29.65 in 10.0 mi Variable 6.9 mph - N/A   Clear
4:52 AM 71.1 °F 37.0 °F 29% 29.67 in 10.0 mi West 10.4 mph 20.7 mph N/A   Clear
5:52 AM 64.0 °F 37.9 °F 38% 29.70 in 10.0 mi WSW 4.6 mph - N/A   Clear
6:52 AM 66.9 °F 42.1 °F 40% 29.72 in 10.0 mi West 4.6 mph - N/A   Clear
7:52 AM 71.1 °F 39.9 °F 32% 29.78 in 10.0 mi West 4.6 mph - N/A   Clear
8:52 AM 75.9 °F 45.0 °F 33% 29.80 in 10.0 mi North 15.0 mph - N/A   Clear
9:52 AM 77.0 °F 46.0 °F 33% 29.81 in 10.0 mi North 17.3 mph 25.3 mph N/A   Clear
10:52 AM 78.1 °F 46.0 °F 32% 29.82 in 10.0 mi NE 13.8 mph 21.9 mph N/A   Clear
11:52 AM 78.1 °F 46.9 °F 33% 29.81 in 10.0 mi NE 12.7 mph 18.4 mph N/A   Clear
12:52 PM 80.1 °F 46.9 °F 31% 29.80 in 10.0 mi Variable 3.5 mph - N/A   Clear
1:52 PM 81.0 °F 46.9 °F 30% 29.79 in 10.0 mi Calm Calm - N/A   Clear
2:52 PM 82.0 °F 46.9 °F 29% 29.77 in 10.0 mi East 6.9 mph - N/A   Clear
3:52 PM 82.9 °F 46.9 °F 28% 29.76 in 10.0 mi NE 9.2 mph - N/A   Clear
4:52 PM 82.0 °F 46.9 °F 29% 29.74 in 10.0 mi NNE 13.8 mph - N/A   Clear
5:52 PM 80.1 °F 46.0 °F 30% 29.75 in 10.0 mi NE 12.7 mph - N/A   Clear
6:52 PM 73.0 °F 46.9 °F 39% 29.75 in 10.0 mi NE 8.1 mph - N/A   Clear
7:52 PM 71.1 °F 46.0 °F 41% 29.78 in 10.0 mi ENE 6.9 mph - N/A   Clear
8:52 PM 66.0 °F 46.9 °F 50% 29.79 in 10.0 mi East 5.8 mph - 0.00 in Thunderstorm Mostly Cloudy
9:02 PM 64.4 °F 46.4 °F 52% 29.88 in 10.0 mi East 6.9 mph - N/A Thunderstorm Mostly Cloudy
9:23 PM 64.4 °F 44.6 °F 49% 29.87 in 10.0 mi ENE 9.2 mph - N/A   Clear
9:52 PM 61.0 °F 44.1 °F 54% 29.80 in 10.0 mi East 8.1 mph - N/A   Clear
10:52 PM 57.0 °F 43.0 °F 59% 29.82 in 10.0 mi ENE 6.9 mph - N/A   Clear
11:52 PM 55.0 °F 42.1 °F 62% 29.83 in 10.0 mi ENE 6.9 mph - N/A   Clear